Hourly Data Report for June 10, 2021

ATIKOKAN (AUT)
ONTARIO
Current Station Operator: ECCC - MSC

48°45'40.000" N
91°37'41.000" W
389.30 m
6020LPQ
71747
WCH

Download Data

Hourly Data (June 2021)
Hourly Data Report for June 10, 2021
TIME
LST
Temp Definition
°C
Dew Point Definition
°C
Rel Hum Definition
%
Precip. Amount Definition
mm

Wind Dir Definition
10's deg

Wind Spd Definition
km/h
Visibility Definition
km
Stn Press Definition
kPa
Hmdx Definition


Wind Chill Definition


Weather Definition


00:00 17.6 17.0 96 3.6 13 6   96.90     LegendNANA
01:00 17.8 17.4 98 2.9 21 3   96.77     LegendNANA
02:00 17.8 17.4 98 0.0 25 3   96.73     LegendNANA
03:00 17.5 17.1 97 0.0 26 2   96.70     LegendNANA
04:00 17.5 17.2 98 0.0   0   96.71     LegendNANA
05:00 17.6 17.3 98 0.0 22 2   96.72     LegendNANA
06:00 18.1 17.6 97 0.0 26 3   96.75     LegendNANA
07:00 19.0 17.5 92 0.0 24 3   96.75     LegendNANA
08:00 20.3 17.6 84 0.0 32 5   96.74 26   LegendNANA
09:00 21.3 18.4 84 0.0 31 5   96.69 28   LegendNANA
10:00 22.4 17.7 75 0.0 33 4   96.67 28   LegendNANA
11:00 24.1 18.9 73 0.1 34 6   96.67 31   LegendNANA
12:00 23.7 17.3 67 0.0 34 8   96.67 29   LegendNANA
13:00 24.6 16.3 60 0.0 31 6   96.62 29   LegendNANA
14:00 25.7 17.3 60 0.0 35 5   96.61 31   LegendNANA
15:00 25.3 17.4 61 0.1 1 6   96.59 31   LegendNANA
16:00 25.4 17.8 63 0.0 35 6   96.60 31   LegendNANA
17:00 24.2 17.4 66 0.0 2 5   96.60 30   LegendNANA
18:00 24.1 16.5 62 0.0 4 8   96.59 29   LegendNANA
19:00 22.5 16.0 67 0.0 4 3   96.62 27   LegendNANA
20:00 19.7 16.0 79 0.0 5 5   96.66     LegendNANA
21:00 18.5 15.9 85 0.0 6 6   96.66     LegendNANA
22:00 19.0 16.4 85 0.0 9 12   96.69     LegendNANA
23:00 17.4 15.0 86 0.0 9 15   96.76     LegendNANA

Notes on Data Quality.

Legend

  • E = Estimated
  • M = Missing
  • NA = Not Available*
  • [empty] = Indicates an unobserved value
Date modified: